Starlink 34141

operational
NORAD ID: 64020 Int'l Des: 2025-101 Owner: SPXS Country: US Constellation: starlink
LEOCIRCULAR

关于 Starlink 34141

正在加载描述...

实时位置

正在加载3D地球...

即将过境

高度历史

Altitude vs Time

uPlot chart will show altitude changes over time

两行轨道根数

1 64020U 25101AC 26061.29681472 .00023599 00000-0 86355-3 0 9993
2 64020 42.9998 39.7896 0000943 270.5496 89.5247 15.27610187 45929
Epoch: Mar 2, 2026 • Age: 28 hours

当前状态

高度 482.1 km
速度 7.63 km/s
星下点 9.48°N, 20.1°W
发射日期 May 14, 2025
运行时间 0.7 years
类型 internet

技术详情

分类 Payload
质量 575.00 kg
干质量 530.00 kg
总质量 575.00 kg
长度 0.30 m
直径 4.10 m
跨度 29.00 m
形状 Box + pan
制造商 SPXS
平台类型 Starlink V2MO
阶段状态 In Orbit
所有者/国家 SPXS/US

大型星座

Loading constellations...